This demonstration page uses our WeatherBlox Daily Observations layout. Learn more.

Left ArrowRight Arrow

39.01783, -85.05884

Hourly Observations for March 21, 2022

Temp ( °F °C ) Dew Point ( °F °C ) Humidity (%) Winds ( mph kmh ) Pressure ( in mb ) Visibility ( mi km ) Precip ( " mm )
12:52 am 00:52 Clear 44 6.7 34 1.1 68 68 SSW 7 11 30.20 1023 10 16 0.00 0.00
1:52 am 01:52 Clear 45 7.2 34 1.1 66 66 SSW 5 7 30.19 1023 10 16 0.00 0.00
2:52 am 02:52 Clear 43 6.1 34 1.1 71 71 SSW 6 9 30.20 1023 10 16 0.00 0.00
3:52 am 03:52 Clear 42 5.6 34 1.1 73 73 SSW 6 9 30.20 1023 10 16 0.00 0.00
4:52 am 04:52 Clear 44 6.7 33 0.6 65 65 SSW 7 11 30.20 1023 10 16 0.00 0.00
5:52 am 05:52 Clear 42 5.6 33 0.6 71 71 SSW 7 11 30.21 1023 10 16 0.00 0.00
6:52 am 06:52 Clear 41 5 33 0.6 73 73 SSW 6 9 30.23 1024 10 16 0.00 0.00
7:52 am 07:52 Sunny 42 5.6 33 0.6 71 71 SSW 3 6 30.24 1024 10 16 0.00 0.00
8:52 am 08:52 Mostly Sunny 45 7.2 38 3.3 77 77 SSW 6 9 30.26 1025 10 16 0.00 0.00
9:52 am 09:52 Mostly Sunny 53 11.7 36 2.2 52 52 SW 8 13 30.26 1025 10 16 0.00 0.00
10:52 am 10:52 Mostly Sunny 59 15 35 1.7 41 41 SW 10 17 30.26 1025 10 16 0.00 0.00
11:52 am 11:52 Mostly Sunny 63 17.2 36 2.2 37 37 SW 13 20 30.25 1024 10 16 0.00 0.00
12:52 pm 12:52 Mostly Sunny 67 19.4 36 2.2 32 32 SSW 9 15 30.24 1024 10 16 0.00 0.00
1:52 pm 13:52 Mostly Cloudy 69 20.6 34 1.1 27 27 SW 10 17 30.21 1023 10 16 0.00 0.00
2:52 pm 14:52 Mostly Cloudy 70 21.1 33 0.6 26 26 S 12 19 30.18 1022 10 16 0.00 0.00
3:52 pm 15:52 Mostly Cloudy 70 21.1 33 0.6 26 26 S 13 20 30.14 1021 10 16 0.00 0.00
4:52 pm 16:52 Mostly Cloudy 70 21.1 33 0.6 26 26 S 9 15 30.11 1020 10 16 0.00 0.00
5:52 pm 17:52 Mostly Cloudy 69 20.6 32 0 25 25 SW 9 15 30.08 1019 10 16 0.00 0.00
6:52 pm 18:52 Partly Cloudy 65 18.3 34 1.1 32 32 S 8 13 30.09 1019 10 16 0.00 0.00
7:52 pm 19:52 Mostly Cloudy 61 16.1 34 1.1 36 36 S 9 15 30.09 1019 10 16 0.00 0.00
8:52 pm 20:52 Cloudy 59 15 34 1.1 39 39 SSE 7 11 30.09 1019 10 16 0.00 0.00
9:52 pm 21:52 Cloudy 58 14.4 34 1.1 41 41 SSE 5 7 30.08 1019 10 16 0.00 0.00
10:52 pm 22:52 Cloudy 59 15 39 3.9 48 48 ESE 5 7 30.07 1018 10 16 0.00 0.00
11:52 pm 23:52 Cloudy 58 14.4 34 1.1 41 41 ESE 5 7 30.07 1018 10 16 0.00 0.00

Powered by AerisWeather